Location: Skalnate Pleso
(49.1889°N, 20.2450°E)
Time: 22:54:13
(UTC+01:00)

COSMOS 2428 - Pass Details

Date: 19 November 2019
Orbit: 844 x 858 km, 70.9° (Epoch: 11 December)

Event Time Altitude Azimuth Distance (km) Brightness Sun altitude
Exits shadow 05:16:35 - 336° (NNW) 2,822 5.1 -15.8°
Reaches altitude 10° 05:17:29 10° 338° (NNW) 2,489 4.8 -15.6°
Maximum altitude 05:23:05 53° 55° (NE) 1,042 3.4 -14.7°
Drops below altitude 10° 05:28:40 10° 132° (SE) 2,484 6.1 -13.9°
Sets 05:31:11 0° 137° (SE) 3,418 6.9 -13.5°
